Weather History for St. James, MN

Change the Weather History Date:

Monday, November 12, 2012

  Actual Average Record
Temperature  
Mean Temperature 22 °F -  
Max Temperature 26 °F 39 °F 66 °F (1987)
Min Temperature 19 °F 23 °F -8 °F (1986)
Degree Days  
Heating Degree Days 42    
Moisture  
Dew Point 14 °F    
Average Humidity 71    
Maximum Humidity 80    
Minimum Humidity 55    
Precipitation  
Precipitation 0.00 in - - ()
Sea Level Pressure  
Sea Level Pressure 30.13 in    
Wind  
Wind Speed 15 mph (West)    
Max Wind Speed 24 mph    
Max Gust Speed 28 mph    
Visibility 10 miles    
Events Snow    
Averages and records for this station are not official NWS values.
T = Trace of Precipitation, MM = Missing Value Source: NWS Daily Summary

Daily Weather History Graph

Daily Weather History Graph

Search for Another Location

Airport:

Trip Planner

Search our weather history database for the weather conditions in past years. The results will help you decide how hot, cold, wet, or windy it might be!

Date:

Astronomy

Nov. 12, 2012 Rise Set
Actual Time 7:09 AM CST 4:54 PM CST
Civil Twilight 6:38 AM CST 5:25 PM CST
Nautical Twilight 6:04 AM CST 6:00 PM CST
Astronomical Twilight 5:30 AM CST 6:34 PM CST
Moon 5:34 AM CST (11/12) 4:01 PM CST (11/12)
Length of Visible Light 10h 46m
Length of Day
9h 44m
Waning Crescent, 2% of the Moon is Illuminated
Nov 12
Waning Crescent
Nov 13
New
Nov 20
First Quarter
Nov 28
Full
Dec 6
Last Quarter

Hourly Weather History & Observations

Time (CST) Temp. Windchill Dew Point Humidity Pressure Visibility Wind Dir Wind Speed Gust Speed Precip Events Conditions
12:14 AM 21.2 °F 4.5 °F 12.2 °F 68% 30.00 in 10.0 mi WSW 24.2 mph 27.6 mph N/A   Overcast
12:55 AM 19.4 °F 6.6 °F 10.4 °F 68% 30.00 in 10.0 mi WSW 12.7 mph - N/A   Scattered Clouds
1:15 AM 19.4 °F 6.0 °F 10.4 °F 68% 30.00 in 10.0 mi WSW 13.8 mph 18.4 mph N/A   Scattered Clouds
1:55 AM 19.4 °F 4.5 °F 10.4 °F 68% 30.00 in 10.0 mi West 17.3 mph 24.2 mph N/A   Clear
2:15 AM 19.4 °F 6.0 °F 10.4 °F 68% 30.00 in 10.0 mi WSW 13.8 mph - N/A   Clear
2:35 AM 19.4 °F 5.5 °F 10.4 °F 68% 30.00 in 10.0 mi WSW 15.0 mph 18.4 mph N/A   Clear
2:55 AM 19.4 °F 6.6 °F 12.2 °F 74% 30.00 in 10.0 mi WSW 12.7 mph - N/A   Clear
3:15 AM 19.4 °F 6.6 °F 12.2 °F 74% 30.00 in 10.0 mi WSW 12.7 mph - N/A   Clear
3:35 AM 19.4 °F 4.5 °F 12.2 °F 74% 30.00 in 10.0 mi WSW 17.3 mph - N/A   Clear
3:55 AM 19.4 °F 4.1 °F 12.2 °F 74% 30.00 in 10.0 mi WSW 18.4 mph 23.0 mph N/A   Clear
4:15 AM 19.4 °F 5.0 °F 12.2 °F 74% 30.00 in 10.0 mi WSW 16.1 mph 21.9 mph N/A   Scattered Clouds
4:35 AM 19.4 °F 5.0 °F 12.2 °F 74% 30.00 in 10.0 mi WSW 16.1 mph 19.6 mph N/A   Mostly Cloudy
4:55 AM 19.4 °F 6.6 °F 12.2 °F 74% 30.00 in 10.0 mi WSW 12.7 mph - N/A   Scattered Clouds
5:15 AM 19.4 °F 6.0 °F 12.2 °F 74% 30.01 in 10.0 mi SW 13.8 mph - N/A   Mostly Cloudy
5:35 AM 19.4 °F 5.5 °F 12.2 °F 74% 30.01 in 10.0 mi WSW 15.0 mph 21.9 mph N/A   Overcast
6:55 AM 21.2 °F 7.3 °F 15.8 °F 80% 30.02 in 10.0 mi West 16.1 mph 21.9 mph N/A   Overcast
7:14 AM 21.2 °F 7.3 °F 15.8 °F 80% 30.02 in 10.0 mi WSW 16.1 mph - N/A   Overcast
7:35 AM 21.2 °F 7.8 °F 15.8 °F 80% 30.03 in 10.0 mi WSW 15.0 mph 21.9 mph N/A Snow Light Snow
7:55 AM 21.2 °F 7.3 °F 15.8 °F 80% 30.03 in 10.0 mi WSW 16.1 mph - N/A   Overcast
8:14 AM 21.2 °F 6.8 °F 15.8 °F 80% 30.04 in 10.0 mi West 17.3 mph - N/A   Overcast
8:35 AM 21.2 °F 6.0 °F 15.8 °F 80% 30.05 in 10.0 mi West 19.6 mph 24.2 mph N/A Snow Light Snow
8:55 AM 21.2 °F 6.8 °F 15.8 °F 80% 30.05 in 2.5 mi West 17.3 mph 25.3 mph N/A Snow Light Snow
9:15 AM 21.2 °F 6.8 °F 15.8 °F 80% 30.06 in 10.0 mi West 17.3 mph 24.2 mph N/A Snow Light Snow
9:55 AM 21.2 °F 7.8 °F 15.8 °F 80% 30.07 in 2.0 mi West 15.0 mph - N/A Snow Light Snow
10:15 AM 21.2 °F 6.4 °F 15.8 °F 80% 30.08 in 3.0 mi West 18.4 mph 23.0 mph N/A Snow Light Snow
10:34 AM 23.0 °F 7.6 °F 14.0 °F 68% 30.09 in 10.0 mi West 21.9 mph - N/A Snow Light Snow
10:55 AM 21.2 °F 6.8 °F 10.4 °F 63% 30.10 in 10.0 mi West 17.3 mph 26.5 mph N/A   Overcast
11:15 AM 24.8 °F 10.7 °F 14.0 °F 64% 30.10 in 10.0 mi WNW 19.6 mph 26.5 mph N/A   Overcast
11:35 AM 23.0 °F 9.2 °F 12.2 °F 63% 30.11 in 10.0 mi West 17.3 mph 26.5 mph N/A   Mostly Cloudy
11:54 AM 23.0 °F 8.3 °F 12.2 °F 63% 30.11 in 10.0 mi West 19.6 mph 27.6 mph N/A   Mostly Cloudy
12:35 PM 24.8 °F 10.0 °F 12.2 °F 59% 30.12 in 10.0 mi WNW 21.9 mph 26.5 mph N/A   Mostly Cloudy
12:55 PM 26.6 °F 15.2 °F 12.2 °F 55% 30.12 in 10.0 mi WNW 13.8 mph 25.3 mph N/A   Scattered Clouds
1:15 PM 26.6 °F 13.8 °F 12.2 °F 55% 30.12 in 10.0 mi West 17.3 mph 24.2 mph N/A   Scattered Clouds
1:35 PM 24.8 °F 11.1 °F 12.2 °F 59% 30.13 in 10.0 mi WNW 18.4 mph - N/A   Scattered Clouds
1:55 PM 26.6 °F 13.4 °F 12.2 °F 55% 30.13 in 10.0 mi WNW 18.4 mph 26.5 mph N/A   Scattered Clouds
2:55 PM 26.6 °F 14.3 °F 12.2 °F 55% 30.15 in 10.0 mi West 16.1 mph 24.2 mph N/A   Scattered Clouds
3:15 PM 26.6 °F 13.8 °F 14.0 °F 59% 30.17 in 10.0 mi West 17.3 mph 23.0 mph N/A   Scattered Clouds
3:35 PM 26.6 °F 13.4 °F 14.0 °F 59% 30.18 in 10.0 mi West 18.4 mph 23.0 mph N/A   Clear
3:55 PM 26.6 °F 14.7 °F 14.0 °F 59% 30.18 in 10.0 mi West 15.0 mph - N/A   Scattered Clouds
4:15 PM 26.6 °F 13.1 °F 12.2 °F 55% 30.20 in 10.0 mi West 19.6 mph 23.0 mph N/A   Clear
4:35 PM 26.6 °F 15.7 °F 14.0 °F 59% 30.20 in 10.0 mi West 12.7 mph - N/A   Clear
4:54 PM 24.8 °F 14.6 °F 14.0 °F 64% 30.21 in 10.0 mi West 10.4 mph - N/A   Clear
5:15 PM 24.8 °F 14.0 °F 15.8 °F 69% 30.21 in 10.0 mi West 11.5 mph - N/A   Clear
5:35 PM 24.8 °F 15.3 °F 15.8 °F 69% 30.22 in 10.0 mi West 9.2 mph - N/A   Clear
5:55 PM 23.0 °F - 15.8 °F 74% 30.22 in 10.0 mi Calm Calm - N/A   Clear
6:14 PM 23.0 °F - 15.8 °F 74% 30.23 in 10.0 mi Calm Calm - N/A   Clear
6:55 PM 21.2 °F - 15.8 °F 80% 30.24 in 10.0 mi Calm Calm - N/A   Clear
7:15 PM 21.2 °F 16.4 °F 15.8 °F 80% 30.25 in 10.0 mi West 3.5 mph - N/A   Clear
7:35 PM 21.2 °F - 15.8 °F 80% 30.26 in 10.0 mi Calm Calm - N/A   Clear
7:54 PM 21.2 °F - 15.8 °F 80% 30.26 in 10.0 mi Calm Calm - N/A   Clear
8:15 PM 21.2 °F - 15.8 °F 80% 30.27 in 10.0 mi Calm Calm - N/A   Clear
8:35 PM 21.2 °F - 14.0 °F 74% 30.28 in 10.0 mi Calm Calm - N/A   Clear
8:54 PM 21.2 °F 10.1 °F 14.0 °F 74% 30.28 in 10.0 mi West 10.4 mph - N/A   Clear
9:15 PM 21.2 °F 11.7 °F 14.0 °F 74% 30.29 in 10.0 mi West 8.1 mph - N/A   Clear
9:35 PM 21.2 °F 12.6 °F 14.0 °F 74% 30.29 in 10.0 mi West 6.9 mph - N/A   Clear
9:54 PM 21.2 °F 10.9 °F 14.0 °F 74% 30.30 in 10.0 mi WSW 9.2 mph - N/A   Clear
10:15 PM 21.2 °F 16.4 °F 14.0 °F 74% 30.30 in 10.0 mi WSW 3.5 mph - N/A   Clear
10:35 PM 21.2 °F - 14.0 °F 74% 30.30 in 10.0 mi Calm Calm - N/A   Clear
10:55 PM 21.2 °F - 14.0 °F 74% 30.31 in 10.0 mi Calm Calm - N/A   Clear
11:15 PM 19.4 °F - 14.0 °F 80% 30.30 in 10.0 mi Calm Calm - N/A   Clear
11:35 PM 19.4 °F - 14.0 °F 80% 30.31 in 10.0 mi Calm Calm - N/A   Clear
11:55 PM 19.4 °F - 14.0 °F 80% 30.32 in 10.0 mi Calm Calm - N/A   Clear